KI5MQY-13 Weather Reports


time (UTC)temp
C
wind
direction
speed
KPH
gust
KPH
rain 1hr
cm
rain 24hr
cm
rain mn
cm
humidity
%
barometer
mb
20260505234924 29 330 20.9 20.9 0.00 0.00 0.00 45 1005.0
20260505224925 31 230 16.1 16.1 0.00 0.00 0.00 54 1003.0
20260505221924 31 230 16.1 16.1 0.00 0.00 0.00 54 1003.0
20260505214924 31 230 16.1 33.8 0.00 0.00 0.00 55 1003.0
20260505211924 32 190 11.3 19.3 0.00 0.00 0.00 57 1003.0
20260505204924 31 230 9.7 19.3 0.00 0.00 0.00 58 1003.0
20260505194924 31 230 9.7 19.3 0.00 0.00 0.00 58 1003.0
20260505181924 28 200 32.2 48.3 0.00 0.00 0.00 67 1004.0
20260505174924 27 200 32.2 48.3 0.00 0.00 0.00 68 1004.0
20260505171924 27 200 32.2 48.3 0.00 0.00 0.00 70 1005.0
20260505164924 26 200 32.2 48.3 0.00 0.00 0.00 71 1004.0
20260505151924 24 200 20.9 40.2 0.00 0.00 0.00 76 1004.0
20260505124924 21 190 29.0 45.1 0.00 0.00 0.00 83 1004.0
20260505114924 21 190 29.0 45.1 0.00 0.00 0.00 83 1004.0
20260505111924 21 190 29.0 45.1 0.00 0.00 0.00 83 1003.0
20260505094924 21 190 33.8 48.3 0.00 0.00 0.00 83 1004.0
20260505091924 21 190 33.8 48.3 0.00 0.00 0.00 83 1004.0
20260505084924 21 190 33.8 48.3 0.00 0.00 0.00 83 1004.0
20260505081924 21 190 33.8 48.3 0.00 0.00 0.00 82 1004.0
20260505074925 22 180 27.4 45.1 0.00 0.00 0.00 81 1004.0
20260505071924 22 180 27.4 45.1 0.00 0.00 0.00 79 1005.0
20260505064924 22 180 27.4 45.1 0.00 0.00 0.00 78 1005.0
20260505061924 22 180 24.1 24.1 0.00 0.00 0.00 77 1005.0
20260505054924 22 180 24.1 24.1 0.00 0.00 0.00 76 1005.0
20260505051924 23 170 27.4 27.4 0.00 0.00 0.00 74 1005.0
20260505031924 23 180 27.4 27.4 0.00 0.00 0.00 70 1006.0
20260505024924 23 180 27.4 27.4 0.00 0.00 0.00 69 1005.0
20260505021924 23 180 27.4 27.4 0.00 0.00 0.00 68 1006.0
20260505014925 24 190 27.4 45.1 0.00 0.00 0.00 67 1006.0
20260505004925 25 200 38.6 59.5 0.00 0.00 0.00 63 1006.0
20260505001924 26 200 38.6 59.5 0.00 0.00 0.00 62 1006.0